SB KEPS @ AMSAT $ORB08346.O Orbital Elements 08346.OSCAR
HR AMSAT ORBITAL ELEMENTS FOR OSCAR SATELLITES FROM WA5QGD FORT WORTH,TX December 11, 2008 Send Subscribe/unsubscribe to KEPS at http://www.amsat.org/mailman/listinfo/keps BID: ORB08346.O TO ALL RADIO AMATEURS BT
Satellite: AO-07 Catalog number: 07530 Epoch time: 08346.38408185 Element set: 349 Inclination: 101.4477 deg RA of node: 011.8245 deg Eccentricity: 0.0011766 Arg of perigee: 275.4355 deg Mean anomaly: 084.5378 deg Mean motion: 12.53574760 rev/day Decay rate: -2.7e-07 rev/day^2 Epoch rev: 55918 Checksum: 317
Satellite: AO-10 Catalog number: 14129 Epoch time: 08343.45863267 Element set: 597 Inclination: 026.0341 deg RA of node: 182.1707 deg Eccentricity: 0.5958897 Arg of perigee: 179.8504 deg Mean anomaly: 180.4929 deg Mean motion: 02.05868720 rev/day Decay rate: 1.07e-06 rev/day^2 Epoch rev: 19169 Checksum: 340
Satellite: UO-11 Catalog number: 14781 Epoch time: 08345.95425105 Element set: 833 Inclination: 098.1348 deg RA of node: 022.4325 deg Eccentricity: 0.0008284 Arg of perigee: 219.4593 deg Mean anomaly: 140.6041 deg Mean motion: 14.79683444 rev/day Decay rate: 3.56e-06 rev/day^2 Epoch rev: 32999 Checksum: 316
Satellite: RS-15 Catalog number: 23439 Epoch time: 08346.39712628 Element set: 165 Inclination: 064.8161 deg RA of node: 208.4878 deg Eccentricity: 0.0145797 Arg of perigee: 088.3234 deg Mean anomaly: 273.4381 deg Mean motion: 11.27553090 rev/day Decay rate: -3.9e-07 rev/day^2 Epoch rev: 57494 Checksum: 336
Satellite: FO-29 Catalog number: 24278 Epoch time: 08346.46061694 Element set: 923 Inclination: 098.5776 deg RA of node: 239.4538 deg Eccentricity: 0.0351514 Arg of perigee: 116.6110 deg Mean anomaly: 247.1497 deg Mean motion: 13.52939874 rev/day Decay rate: -6.9e-07 rev/day^2 Epoch rev: 60836 Checksum: 351
Satellite: SO-33 Catalog number: 25509 Epoch time: 08345.54375048 Element set: 342 Inclination: 031.4287 deg RA of node: 039.1681 deg Eccentricity: 0.0354659 Arg of perigee: 129.2227 deg Mean anomaly: 234.0438 deg Mean motion: 14.28232279 rev/day Decay rate: 2.0e-07 rev/day^2 Epoch rev: 52884 Checksum: 306
Satellite: AO-40 Catalog number: 26609 Epoch time: 08345.45817211 Element set: 165 Inclination: 008.2618 deg RA of node: 044.3169 deg Eccentricity: 0.7938980 Arg of perigee: 153.6540 deg Mean anomaly: 290.7641 deg Mean motion: 01.25583138 rev/day Decay rate: -1.2e-07 rev/day^2 Epoch rev: 3725 Checksum: 305
Satellite: VO-52 Catalog number: 28650 Epoch time: 08346.36224472 Element set: 101 Inclination: 097.7700 deg RA of node: 047.9055 deg Eccentricity: 0.0026003 Arg of perigee: 283.5485 deg Mean anomaly: 076.2810 deg Mean motion: 14.81532559 rev/day Decay rate: 4.03e-06 rev/day^2 Epoch rev: 19483 Checksum: 296
Satellite: PO-63 Catalog number: 29712 Epoch time: 08346.73248185 Element set: 47 Inclination: 097.8551 deg RA of node: 041.3954 deg Eccentricity: 0.0014393 Arg of perigee: 160.8840 deg Mean anomaly: 199.2926 deg Mean motion: 14.80370194 rev/day Decay rate: 6.91e-06 rev/day^2 Epoch rev: 10373 Checksum: 323
/EX SB KEPS @ AMSAT $ORB08346.D Orbital Elements 08346.MICROS
HR AMSAT ORBITAL ELEMENTS FOR THE MICROSATS FROM WA5QGD FORT WORTH,TX December 11, 2008 Send Subscribe/unsubscribe to KEPS at http://www.amsat.org/mailman/listinfo/keps BID: ORB08346.D TO ALL RADIO AMATEURS BT
Satellite: AO-16 Catalog number: 20439 Epoch time: 08345.94309357 Element set: 483 Inclination: 098.2539 deg RA of node: 317.1816 deg Eccentricity: 0.0011395 Arg of perigee: 015.4453 deg Mean anomaly: 344.7078 deg Mean motion: 14.31810491 rev/day Decay rate: 1.7e-07 rev/day^2 Epoch rev: 98621 Checksum: 314
Satellite: LO-19 Catalog number: 20442 Epoch time: 08346.86946464 Element set: 408 Inclination: 098.2191 deg RA of node: 326.0224 deg Eccentricity: 0.0012247 Arg of perigee: 009.7387 deg Mean anomaly: 350.4032 deg Mean motion: 14.32048230 rev/day Decay rate: 5.6e-07 rev/day^2 Epoch rev: 98650 Checksum: 295
Satellite: AO-27 Catalog number: 22825 Epoch time: 08346.03857660 Element set: 126 Inclination: 098.4110 deg RA of node: 299.6555 deg Eccentricity: 0.0009315 Arg of perigee: 098.4207 deg Mean anomaly: 261.8032 deg Mean motion: 14.29254523 rev/day Decay rate: 1.56e-06 rev/day^2 Epoch rev: 79303 Checksum: 308
Satellite: IO-26 Catalog number: 22826 Epoch time: 08346.55175196 Element set: 843 Inclination: 098.4044 deg RA of node: 300.9827 deg Eccentricity: 0.0009858 Arg of perigee: 093.0355 deg Mean anomaly: 267.1973 deg Mean motion: 14.29504119 rev/day Decay rate: 1.5e-07 rev/day^2 Epoch rev: 79320 Checksum: 325
Satellite: GO-32 Catalog number: 25397 Epoch time: 08346.63544050 Element set: 769 Inclination: 098.3449 deg RA of node: 012.8589 deg Eccentricity: 0.0002208 Arg of perigee: 080.4902 deg Mean anomaly: 279.6545 deg Mean motion: 14.23151607 rev/day Decay rate: -8.6e-07 rev/day^2 Epoch rev: 54145 Checksum: 319
Satellite: NO-44 Catalog number: 26931 Epoch time: 08346.71380842 Element set: 48 Inclination: 067.0515 deg RA of node: 187.3190 deg Eccentricity: 0.0006252 Arg of perigee: 256.6737 deg Mean anomaly: 103.3664 deg Mean motion: 14.29542303 rev/day Decay rate: 1.82e-06 rev/day^2 Epoch rev: 37578 Checksum: 306
Satellite: SO-50 Catalog number: 27607 Epoch time: 08345.51672061 Element set: 762 Inclination: 064.5580 deg RA of node: 238.1100 deg Eccentricity: 0.0083367 Arg of perigee: 245.0636 deg Mean anomaly: 114.1799 deg Mean motion: 14.71401021 rev/day Decay rate: 2.4e-07 rev/day^2 Epoch rev: 32091 Checksum: 271
Satellite: CO-55 Catalog number: 27844 Epoch time: 08346.71571763 Element set: 462 Inclination: 098.7157 deg RA of node: 352.5210 deg Eccentricity: 0.0009702 Arg of perigee: 329.7519 deg Mean anomaly: 030.3102 deg Mean motion: 14.20611338 rev/day Decay rate: 3.2e-07 rev/day^2 Epoch rev: 28264 Checksum: 290
Satellite: CO-57 Catalog number: 27848 Epoch time: 08346.03339027 Element set: 411 Inclination: 098.7164 deg RA of node: 350.9178 deg Eccentricity: 0.0009860 Arg of perigee: 334.8389 deg Mean anomaly: 025.2304 deg Mean motion: 14.20417496 rev/day Decay rate: 3.9e-07 rev/day^2 Epoch rev: 28251 Checksum: 319
Satellite: AO-51 Catalog number: 28375 Epoch time: 08345.53448042 Element set: 264 Inclination: 098.0587 deg RA of node: 000.0851 deg Eccentricity: 0.0084563 Arg of perigee: 338.5286 deg Mean anomaly: 021.2362 deg Mean motion: 14.40627152 rev/day Decay rate: 9.0e-08 rev/day^2 Epoch rev: 23379 Checksum: 298
Satellite: CO-56 Catalog number: 28941 Epoch time: 08346.85520439 Element set: 627 Inclination: 098.1225 deg RA of node: 123.3369 deg Eccentricity: 0.0133756 Arg of perigee: 111.1231 deg Mean anomaly: 250.4335 deg Mean motion: 15.67351378 rev/day Decay rate: 3.1214e-04 rev/day^2 Epoch rev: 15776 Checksum: 309
Satellite: CP3 Catalog number: 31128 Epoch time: 08345.82009647 Element set: 503 Inclination: 098.0177 deg RA of node: 041.5820 deg Eccentricity: 0.0103383 Arg of perigee: 148.0857 deg Mean anomaly: 212.6653 deg Mean motion: 14.51999874 rev/day Decay rate: -4.6e-07 rev/day^2 Epoch rev: 8756 Checksum: 314
Satellite: CP4 Catalog number: 31132 Epoch time: 08346.15551382 Element set: 480 Inclination: 098.0221 deg RA of node: 044.9473 deg Eccentricity: 0.0086533 Arg of perigee: 138.1189 deg Mean anomaly: 222.6671 deg Mean motion: 14.55165683 rev/day Decay rate: 1.54e-06 rev/day^2 Epoch rev: 8768 Checksum: 304
Satellite: CO-65 Catalog number: 32785 Epoch time: 08346.22265743 Element set: 233 Inclination: 097.9728 deg RA of node: 045.4941 deg Eccentricity: 0.0013777 Arg of perigee: 283.3972 deg Mean anomaly: 076.5702 deg Mean motion: 14.81425967 rev/day Decay rate: 2.81e-06 rev/day^2 Epoch rev: 3361 Checksum: 332
/EX SB KEPS @ AMSAT $ORB08346.W Orbital Elements 08346.WEATHER
HR AMSAT ORBITAL ELEMENTS FOR WEATHER SATELLITES FROM WA5QGD FORT WORTH,TX December 11, 2008 Send Subscribe/unsubscribe to KEPS at http://www.amsat.org/mailman/listinfo/keps BID: ORB08346.W TO ALL RADIO AMATEURS BT
Satellite: NOAA-10 Catalog number: 16969 Epoch time: 08346.08393756 Element set: 407 Inclination: 098.7097 deg RA of node: 007.5895 deg Eccentricity: 0.0012825 Arg of perigee: 028.7309 deg Mean anomaly: 331.4583 deg Mean motion: 14.27375547 rev/day Decay rate: 9.8e-07 rev/day^2 Epoch rev: 15667 Checksum: 351
Satellite: NOAA-11 Catalog number: 19531 Epoch time: 08346.31385390 Element set: 432 Inclination: 098.7928 deg RA of node: 073.1276 deg Eccentricity: 0.0010915 Arg of perigee: 285.7640 deg Mean anomaly: 074.2364 deg Mean motion: 14.14883303 rev/day Decay rate: 1.2e-07 rev/day^2 Epoch rev: 4295 Checksum: 295
Satellite: NOAA-12 Catalog number: 21263 Epoch time: 08346.84831904 Element set: 939 Inclination: 098.7714 deg RA of node: 348.8360 deg Eccentricity: 0.0011978 Arg of perigee: 333.6012 deg Mean anomaly: 026.5038 deg Mean motion: 14.25558172 rev/day Decay rate: 7.6e-07 rev/day^2 Epoch rev: 91374 Checksum: 320
Satellite: MET-3/5 Catalog number: 21655 Epoch time: 08344.91006603 Element set: 526 Inclination: 082.5551 deg RA of node: 340.2263 deg Eccentricity: 0.0012682 Arg of perigee: 298.3400 deg Mean anomaly: 061.6442 deg Mean motion: 13.17017188 rev/day Decay rate: 5.1e-07 rev/day^2 Epoch rev: 83271 Checksum: 273
Satellite: MET-2/21 Catalog number: 22782 Epoch time: 08346.52406316 Element set: 323 Inclination: 082.5471 deg RA of node: 330.8854 deg Eccentricity: 0.0023136 Arg of perigee: 149.3448 deg Mean anomaly: 210.9082 deg Mean motion: 13.83632164 rev/day Decay rate: 1.27e-06 rev/day^2 Epoch rev: 77165 Checksum: 293
Satellite: OKEAN-4 Catalog number: 23317 Epoch time: 08346.08072388 Element set: 770 Inclination: 082.5377 deg RA of node: 150.0198 deg Eccentricity: 0.0020546 Arg of perigee: 264.4800 deg Mean anomaly: 095.4074 deg Mean motion: 14.82658015 rev/day Decay rate: 1.49e-06 rev/day^2 Epoch rev: 76449 Checksum: 311
